Caribou, ME

9:18 AM EDT on May 23, 2017 (GMT -0400)
Caribou Municipal

Weather History for KCAR - January, 2014

Change the Weather History Date:

Monday, January 6, 2014

  Actual Average Record
Temperature  
Mean Temperature 32 °F 11 °F  
Max Temperature 45 °F 20 °F 47 °F (2007)
Min Temperature 19 °F 2 °F -20 °F (1999)
Degree Days  
Heating Degree Days 33 54  
Month to date heating degree days 392 321  
Since 1 July heating degree days 3957 3915  
Cooling Degree Days 0 0  
Month to date cooling degree days 0 0  
Year to date cooling degree days 0 0  
Moisture  
Dew Point 31 °F    
Average Humidity 83    
Maximum Humidity 93    
Minimum Humidity 72    
Precipitation  
Precipitation 0.90 in 0.09 in 0.90 in (2014)
Month to date precipitation 0.95 0.54  
Year to date precipitation 0.95 0.54  
Snow  
Snow 0.30 in 0.90 in 4.00 in (1998)
Month to date snowfall 1.6 4.9  
Since 1 July snowfall 56.5 40.0  
Snow Depth 17.00 in    
Sea Level Pressure  
Sea Level Pressure 29.46 in    
Wind  
Wind Speed 13 mph (SSE)    
Max Wind Speed 30 mph    
Max Gust Speed 47 mph    
Visibility 5 miles    
Events Rain , Snow    
T = Trace of Precipitation, MM = Missing Value Source: NWS Daily Summary

Daily Weather History Graph

Daily Weather History Graph

Search for Another Location

Airport or City:

Trip Planner

Search our weather history database for the weather conditions in past years. The results will help you decide how hot, cold, wet, or windy it might be!

Date:

Astronomy

Jan. 06, 2014 Rise Set
Actual Time 7:16 AM EST 3:59 PM EST
Civil Twilight 6:41 AM EST 4:34 PM EST
Nautical Twilight 6:03 AM EST 5:12 PM EST
Astronomical Twilight 5:26 AM EST 5:49 PM EST
Moon 10:06 AM EST (1/6) 10:55 PM EST (1/6)
Length of Visible Light 9h 52m
Length of Day
8h 42m
Waxing Crescent, 34% of the Moon is Illuminated
Jan 6
Waxing Crescent
Jan 7
First Quarter
Jan 15
Full
Jan 24
Last Quarter
Jan 30
New

Hourly Weather History & Observations

Time (EST) Temp. Windchill Dew Point Humidity Pressure Visibility Wind Dir Wind Speed Gust Speed Precip Events Conditions
12:54 AM 21.0 °F 14.6 °F 16.0 °F 81% 30.15 in 10.0 mi NE 4.6 mph - N/A   Overcast
1:54 AM 19.9 °F 14.9 °F 17.1 °F 89% 30.13 in 10.0 mi ESE 3.5 mph - N/A   Overcast
2:44 AM 21.0 °F 14.6 °F 17.1 °F 85% 30.04 in 2.0 mi East 4.6 mph - 0.00 in Snow Light Snow
2:49 AM 21.2 °F 14.9 °F 17.6 °F 86% 30.03 in 1.8 mi East 4.6 mph - 0.00 in Snow Light Snow
2:54 AM 21.0 °F 14.6 °F 17.1 °F 85% 30.08 in 1.5 mi East 4.6 mph - 0.00 in Snow Light Snow
3:08 AM 21.0 °F 13.4 °F 17.1 °F 85% 30.01 in 3.0 mi ENE 5.8 mph - 0.01 in Snow Light Snow
3:15 AM 21.9 °F 13.4 °F 18.0 °F 85% 29.99 in 8.0 mi East 6.9 mph - 0.01 in Snow Light Snow
3:43 AM 21.9 °F 12.5 °F 18.0 °F 85% 29.96 in 2.5 mi East 8.1 mph - 0.01 in Snow Light Snow
3:54 AM 23.0 °F 13.9 °F 19.0 °F 85% 30.00 in 2.5 mi East 8.1 mph - 0.02 in Snow Light Snow
4:01 AM 23.0 °F 14.7 °F 19.0 °F 85% 29.94 in 8.0 mi East 6.9 mph - 0.00 in Snow Light Snow
4:45 AM 25.0 °F 17.1 °F 19.9 °F 81% 29.90 in 10.0 mi ESE 6.9 mph - 0.01 in   Overcast
4:54 AM 25.0 °F 17.1 °F 19.0 °F 78% 29.94 in 10.0 mi ESE 6.9 mph - 0.01 in   Overcast
5:39 AM 26.1 °F 17.6 °F 19.9 °F 78% 29.83 in 10.0 mi East 8.1 mph - 0.01 in Rain Light Freezing Rain
5:54 AM 27.0 °F 18.0 °F 21.0 °F 78% 29.86 in 10.0 mi ESE 9.2 mph - 0.01 in   Overcast
6:22 AM 27.0 °F 19.5 °F 23.0 °F 85% 29.79 in 5.0 mi ESE 6.9 mph - 0.01 in Rain Light Freezing Rain
6:33 AM 27.0 °F 19.5 °F 24.1 °F 89% 29.78 in 6.0 mi East 6.9 mph - 0.01 in   Overcast
6:47 AM 27.0 °F 20.5 °F 24.1 °F 89% 29.77 in 6.0 mi ESE 5.8 mph - 0.01 in   Overcast
6:54 AM 28.0 °F 19.3 °F 25.0 °F 88% 29.80 in 4.0 mi ESE 9.2 mph - 0.01 in Rain Light Freezing Rain
7:40 AM 30.9 °F 24.3 °F 28.9 °F 92% 29.72 in 3.0 mi ESE 6.9 mph - 0.04 in Rain Light Freezing Rain
7:54 AM 32.0 °F 24.2 °F 30.0 °F 92% 29.74 in 2.5 mi SE 9.2 mph - 0.06 in Rain Light Freezing Rain
8:05 AM 34.0 °F 24.6 °F 30.9 °F 89% 29.70 in 4.0 mi SE 13.8 mph 19.6 mph 0.01 in Rain Light Rain
8:20 AM 34.0 °F 25.0 °F 30.9 °F 89% 29.67 in 5.0 mi SE 12.7 mph - 0.02 in Rain Light Rain
8:54 AM 35.1 °F 25.2 °F 33.1 °F 92% 29.67 in 4.0 mi SE 16.1 mph 26.5 mph 0.05 in Rain Light Rain
9:26 AM 36.0 °F 26.3 °F 34.0 °F 93% 29.59 in 2.5 mi SSE 16.1 mph 24.2 mph 0.03 in Rain Light Rain
9:34 AM 36.0 °F 26.0 °F 34.0 °F 93% 29.59 in 3.0 mi SSE 17.3 mph 25.3 mph 0.04 in Rain Light Rain
9:54 AM 37.0 °F 28.5 °F 34.0 °F 89% 29.60 in 4.0 mi SE 13.8 mph 21.9 mph 0.05 in Rain Light Rain
10:54 AM 37.9 °F 27.9 °F 35.1 °F 89% 29.50 in 3.0 mi SSE 19.6 mph 33.4 mph 0.02 in Rain Light Rain
11:02 AM 37.9 °F 27.9 °F 35.1 °F 89% 29.45 in 2.0 mi SSE 19.6 mph 33.4 mph 0.03 in Snow Light Snow
11:11 AM 37.9 °F 27.3 °F 35.1 °F 89% 29.43 in 4.0 mi SSE 21.9 mph 33.4 mph 0.04 in Rain Light Rain
11:37 AM 37.9 °F 27.3 °F 35.1 °F 89% 29.38 in 1.8 mi SSE 21.9 mph 47.2 mph 0.04 in Rain Rain
11:49 AM 39.2 °F 28.3 °F 35.6 °F 87% 29.37 in 3.0 mi SSE 25.3 mph 36.8 mph 0.09 in   Overcast
11:54 AM 39.0 °F 28.3 °F 36.0 °F 89% 29.40 in 3.0 mi SSE 24.2 mph 36.8 mph 0.10 in Rain Rain
12:54 PM 39.9 °F 30.0 °F 37.9 °F 93% 29.31 in 3.0 mi SSE 21.9 mph 32.2 mph 0.03 in Rain Light Rain
1:36 PM 41.0 °F 32.2 °F 39.0 °F 93% 29.25 in 2.0 mi South 18.4 mph 33.4 mph 0.08 in Rain Rain
1:47 PM 41.0 °F 31.6 °F 39.0 °F 93% 29.24 in 5.0 mi South 20.7 mph 31.1 mph 0.09 in Rain Light Rain
1:54 PM 41.0 °F 32.5 °F 39.0 °F 93% 29.26 in 4.0 mi South 17.3 mph 28.8 mph 0.09 in Rain Rain
1:59 PM 41.0 °F 33.5 °F 39.0 °F 93% 29.25 in 1.8 mi SSW 13.8 mph 24.2 mph 0.04 in Rain Heavy Rain
2:15 PM 41.0 °F 32.5 °F 39.0 °F 93% 29.22 in 2.5 mi South 17.3 mph 26.5 mph 0.12 in Rain Rain
2:28 PM 41.0 °F 32.5 °F 39.0 °F 93% 29.19 in 4.0 mi SSE 17.3 mph - 0.16 in Rain Rain
2:54 PM 42.1 °F 33.1 °F 39.9 °F 92% 29.19 in 10.0 mi SSE 20.7 mph 29.9 mph 0.16 in   Overcast
3:06 PM 43.0 °F 34.0 °F 41.0 °F 93% 29.15 in 10.0 mi SSE 21.9 mph 31.1 mph N/A   Overcast
3:16 PM 43.0 °F 34.2 °F 41.0 °F 93% 29.14 in 6.0 mi SSE 20.7 mph 33.4 mph 0.01 in   Overcast
3:54 PM 44.1 °F 38.6 °F 43.0 °F 96% 29.16 in 4.0 mi SSW 10.4 mph - 0.03 in Rain Light Rain
4:34 PM 45.0 °F 39.3 °F 44.1 °F 97% 29.10 in 10.0 mi South 11.5 mph 21.9 mph 0.01 in Rain Light Rain
4:49 PM 44.6 °F 37.8 °F 44.6 °F 100% 29.09 in 2.5 mi South 15.0 mph 24.2 mph 0.02 in Rain Light Rain
4:54 PM 45.0 °F 37.4 °F 44.1 °F 97% 29.12 in 2.0 mi South 18.4 mph 23.0 mph 0.02 in Rain Light Rain
4:59 PM 45.0 °F 38.2 °F 44.1 °F 97% 29.09 in 1.5 mi South 15.0 mph 23.0 mph 0.00 in Rain Light Rain
5:07 PM 45.0 °F 38.2 °F 43.0 °F 93% 29.08 in 1.2 mi South 15.0 mph 23.0 mph 0.01 in Rain Light Rain
5:17 PM 43.0 °F 36.4 °F 42.1 °F 97% 29.09 in 0.8 mi WSW 12.7 mph - 0.01 in Rain Light Rain
5:30 PM 44.1 °F 39.0 °F 43.0 °F 96% 29.09 in 1.5 mi SW 9.2 mph - 0.04 in Rain Light Rain
5:37 PM 44.1 °F 39.0 °F 43.0 °F 96% 29.10 in 1.2 mi West 9.2 mph - 0.06 in Rain Rain
5:46 PM 43.0 °F 37.2 °F 42.1 °F 97% 29.11 in 1.5 mi WSW 10.4 mph - 0.09 in Rain Rain
5:50 PM 42.8 °F 38.0 °F 42.8 °F 100% 29.10 in 2.0 mi WSW 8.1 mph - 0.10 in Rain Rain
5:54 PM 44.1 °F 40.1 °F 43.0 °F 96% 29.11 in 2.5 mi West 6.9 mph - 0.12 in Rain Rain
6:02 PM 42.1 °F 37.7 °F 42.1 °F 100% 29.09 in 3.0 mi SW 6.9 mph - 0.01 in Rain Light Rain
6:29 PM 42.1 °F 35.7 °F 39.9 °F 92% 29.11 in 5.0 mi West 11.5 mph 20.7 mph 0.05 in Rain Light Rain
6:43 PM 39.0 °F 30.3 °F 37.0 °F 93% 29.10 in 6.0 mi West 16.1 mph 28.8 mph 0.08 in Rain Rain
6:50 PM 37.4 °F 29.3 °F 33.8 °F 87% 29.11 in 7.0 mi WNW 12.7 mph 26.5 mph 0.09 in Rain Light Rain
6:54 PM 37.0 °F 29.8 °F 34.0 °F 89% 29.14 in 9.0 mi West 10.4 mph 24.2 mph 0.09 in Rain Light Rain
7:46 PM 34.0 °F 25.5 °F 30.9 °F 89% 29.12 in 10.0 mi West 11.5 mph - 0.03 in Rain Light Rain
7:54 PM 34.0 °F 24.6 °F 30.9 °F 89% 29.16 in 10.0 mi West 13.8 mph 20.7 mph 0.03 in   Overcast
8:16 PM 34.0 °F 25.5 °F 30.0 °F 85% 29.14 in 10.0 mi WSW 11.5 mph - 0.00 in   Overcast
8:54 PM 33.1 °F 22.6 °F 28.0 °F 82% 29.15 in 10.0 mi WSW 16.1 mph - 0.00 in   Overcast
9:36 PM 32.0 °F 21.2 °F 26.1 °F 79% 29.12 in 9.0 mi WSW 16.1 mph 23.0 mph 0.00 in   Overcast
9:54 PM 32.0 °F 21.6 °F 25.0 °F 75% 29.15 in 10.0 mi West 15.0 mph 21.9 mph 0.00 in   Overcast
10:54 PM 28.9 °F 17.3 °F 21.0 °F 72% 29.15 in 10.0 mi WSW 16.1 mph 25.3 mph 0.00 in   Overcast
11:54 PM 25.0 °F 12.6 °F 16.0 °F 69% 29.17 in 10.0 mi West 15.0 mph 24.2 mph N/A   Overcast